Regional Weather Roundup
Issued by NWS Green Bay, WI

Home | Current Version | Previous Version | Graphics & Text | Print | Product List | Glossary Off
Versions: 1 2 3 4 5 6 7 8 9 10 11 12 13 14 15 16 17 18 19 20 21 22 23 24 25 26 27 28 29 30 31 32 33 34 35 36 37 38 39 40 41 42 43 44 45 46 47 48 49 50

000
ASUS43 KGRB 050900
RWRGRB

NORTH-CENTRAL AND NORTHEAST WISCONSIN REGIONAL WEATHER ROUNDUP
NATIONAL WEATHER SERVICE GREEN BAY WI
400 AM CDT SAT SEP 05 2015

WIZ005-009-010>012-018-019-051000-
NORTH CENTRAL WISCONSIN

CITY           SKY/WX    TMP DP  RH WIND       PRES   REMARKS
IRONWOOD       CLEAR     70  64  83 SE5       29.99S
MANITOWISH WTR NOT AVBL
ARBOR VITAE    NOT AVBL
EAGLE RIVER    NOT AVBL
LAND O LAKES   NOT AVBL
RHINELANDER    CLOUDY    65  64  97 S3        30.09S FOG
PHILLIPS       MOCLDY    66  66  98 SE3       30.04F FOG
ANTIGO         NOT AVBL
TOMAHAWK       NOT AVBL
MERRILL        CLOUDY    67  67 100 CALM      30.08S FOG
$$

WIZ013-073-051000-
NORTHEAST WISCONSIN

CITY           SKY/WX    TMP DP  RH WIND       PRES   REMARKS
IRON MOUNTAIN  FOG       63  62  97 NW3       30.07R VSB<1/4
MARINETTE      CLOUDY    64  61  88 CALM      30.06R
$$

WIZ017-030-035>037-045-051000-
CENTRAL WISCONSIN

CITY           SKY/WX    TMP DP  RH WIND       PRES   REMARKS
MEDFORD        NOT AVBL
WAUSAU         CLOUDY    67  65  93 E5        30.05F FOG
MOSINEE        NOT AVBL
MARSHFIELD     MOCLDY    67  63  87 E6        30.06S FOG
WISC RAPIDS    MOCLDY    67  63  87 CALM      30.07R
STEVENS POINT  NOT AVBL
WAUPACA        NOT AVBL
SHAWANO        NOT AVBL
CLINTONVILLE   FOG       63  63 100 CALM      30.07S VSB 3/4
WAUTOMA        NOT AVBL
$$

WIZ038-039-048-051-051000-
FOX VALLEY

CITY           SKY/WX    TMP DP  RH WIND       PRES   REMARKS
NWS GREEN BAY  FOG       61  61 100 CALM      30.07S VSB 1/4
APPLETON       NOT AVBL
OSHKOSH        CLOUDY    66  64  93 NE3       30.06R
FOND DU LAC    CLOUDY    66  64  93 CALM      30.07R
$$

WIZ022-050-052-051000-
EAST CENTRAL WISCONSIN

CITY           SKY/WX    TMP DP  RH WIND       PRES   REMARKS
EPHRAIM        FOG       65  65 100 NW3       30.06R VSB 1/4
STURGEON BAY   CLOUDY    64  63  94 W3        30.09R VSB<1/4
MANITOWOC      NOT AVBL
SHEBOYGAN      FOG       64  64 100 CALM      30.07R VSB 1/2
$$

LMZ563-521-522-541>543-051000-
LAKESHORE

STATION/POSITION TIME  TEMP    WIND        PRES    VSBY  WAVE
                       AIR SEA DIR/SP/G                  HT/PER
                 (UTC) (F)     (DEG/KT/KT) (MB)    (MI)  (FT/S)
SHEBOYGAN LKSHOR 0800   63     170/  5/  6 1018.3R
KEWAUNEE LKSHORE 0800   63     270/  1/  2 1017.0R
NORTHPORT PIER   0800   67     330/  2/  3 1017.6S
N MID LAKE BUOY  0750   68 67  160/  6/  6 1017.0F         1
S GREEN BAY BUOY 0800   66 67  360/  2/  2 1019.2S
SISTER BAY LKSHO 0811   65        CALM       N/A
CHAMBERS ISLAND  0800   65     260/  1/  2 1017.9S
MENOMINEE LKSHOR 0800   66     360/  2/  2 1016.6S
$$



USA.gov is the U.S. government's official web portal to all federal, state and local government web resources and services.